User: anonymous   Login
Location: Oshawa
(43.9000°N, 78.8670°W)
Time: 02:12:53
(UTC-04:00)
Language:

CARTOSAT-1 - Orbit

View from above orbital plane
View from above orbital plane
View from above satellite
View from above satellite

Ground track
Ground track

The orbit data is extracted from the following two-line orbital elements,

1 28649U 05017A   17080.80590383 +.00000108 +00000-0 +19518-4 0  9991
2 28649 097.8669 156.5525 0002074 011.5016 348.6232 14.83446362643026
Epoch (UTC): 21 March 2017 19:20:30
Eccentricity: 0.0002074
inclination: 97.8669°
perigee height: 617 km
apogee height: 620 km
right ascension of ascending node: 156.5525°
argument of perigee: 11.5016°
revolutions per day: 14.83446362
mean anomaly at epoch: 348.6232°
orbit number at epoch: 64302

The dashed part of the orbit path shows where the satellite is in the earth's shadow,  

DLR